Weather History for Payson, AZ

Change the Weather History Date:

Tuesday, January 22, 2013

  Actual Average Record
Temperature  
Mean Temperature 50 °F -  
Max Temperature 64 °F 52 °F 64 °F (2013)
Min Temperature 35 °F 24 °F 30 °F (2012)
Degree Days  
Heating Degree Days 16    
Moisture  
Dew Point 8 °F    
Average Humidity 20    
Maximum Humidity 33    
Minimum Humidity 10    
Precipitation  
Precipitation 0.00 in - - ()
Sea Level Pressure  
Sea Level Pressure 30.27 in    
Wind  
Wind Speed 2 mph (SSE)    
Max Wind Speed 8 mph    
Max Gust Speed -    
Visibility 10 miles    
Events      
Averages and records for this station are not official NWS values.
T = Trace of Precipitation, MM = Missing Value Source: NWS Daily Summary

Daily Weather History Graph

Daily Weather History Graph

Search for Another Location

Airport:

Trip Planner

Search our weather history database for the weather conditions in past years. The results will help you decide how hot, cold, wet, or windy it might be!

Date:

Astronomy

Jan. 22, 2013 Rise Set
Actual Time 7:28 AM MST 5:45 PM MST
Civil Twilight 7:01 AM MST 6:12 PM MST
Nautical Twilight 6:31 AM MST 6:43 PM MST
Astronomical Twilight 6:01 AM MST 7:13 PM MST
Moon 2:13 PM MST (1/22) 3:51 AM MST (1/22)
Length of Visible Light 11h 11m
Length of Day
10h 17m
Waxing Gibbous, 83% of the Moon is Illuminated
Jan 22
Waxing Gibbous
Jan 26
Full
Feb 3
Last Quarter
Feb 10
New
Feb 17
First Quarter

Hourly Weather History & Observations

Time (MST) Temp. Windchill Dew Point Humidity Pressure Visibility Wind Dir Wind Speed Gust Speed Precip Events Conditions
12:15 AM 44.6 °F 43.1 °F -4.0 °F 13% 30.25 in 10.0 mi NE 3.5 mph - N/A   Clear
12:35 AM 44.6 °F - -2.2 °F 14% 30.26 in 10.0 mi Calm Calm - N/A   Clear
12:55 AM 44.6 °F - -2.2 °F 14% 30.25 in 10.0 mi Calm Calm - N/A   Clear
1:15 AM 42.8 °F - -2.2 °F 15% 30.25 in 10.0 mi Calm Calm - N/A   Clear
1:35 AM 42.8 °F - 1.4 °F 18% 30.25 in 10.0 mi Calm Calm - N/A   Clear
1:55 AM 39.2 °F - 1.4 °F 21% 30.25 in 10.0 mi Calm Calm - N/A   Clear
2:15 AM 39.2 °F 37.0 °F 1.4 °F 21% 30.26 in 10.0 mi NNE 3.5 mph - N/A   Clear
2:35 AM 39.2 °F - 1.4 °F 21% 30.26 in 10.0 mi Calm Calm - N/A   Clear
3:15 AM 37.4 °F - 3.2 °F 24% 30.27 in 10.0 mi Calm Calm - N/A   Clear
3:35 AM 39.2 °F - 1.4 °F 21% 30.26 in 10.0 mi Calm Calm - N/A   Clear
3:55 AM 37.4 °F - 3.2 °F 24% 30.26 in 10.0 mi Calm Calm - N/A   Clear
4:15 AM 37.4 °F - 5.0 °F 26% 30.27 in 10.0 mi Calm Calm - N/A   Clear
4:35 AM 37.4 °F - 3.2 °F 24% 30.27 in 10.0 mi Calm Calm - N/A   Clear
4:55 AM 37.4 °F - 5.0 °F 26% 30.27 in 10.0 mi Calm Calm - N/A   Clear
5:15 AM 37.4 °F 33.8 °F 5.0 °F 26% 30.27 in 10.0 mi NW 4.6 mph - N/A   Clear
5:35 AM 35.6 °F - 5.0 °F 28% 30.27 in 10.0 mi Calm Calm - N/A   Clear
5:55 AM 39.2 °F 35.0 °F 5.0 °F 24% 30.27 in 10.0 mi NNE 5.8 mph - N/A   Clear
6:15 AM 42.8 °F 41.1 °F 3.2 °F 19% 30.27 in 10.0 mi NNE 3.5 mph - N/A   Clear
6:35 AM 37.4 °F - 5.0 °F 26% 30.28 in 10.0 mi Calm Calm - N/A   Clear
6:55 AM 37.4 °F - 5.0 °F 26% 30.28 in 10.0 mi Calm Calm - N/A   Clear
7:15 AM 42.8 °F 40.1 °F 3.2 °F 19% 30.28 in 10.0 mi East 4.6 mph - N/A   Clear
7:35 AM 44.6 °F - 3.2 °F 18% 30.28 in 10.0 mi Calm Calm - N/A   Clear
7:55 AM 39.2 °F - 5.0 °F 24% 30.28 in 10.0 mi Calm Calm - N/A   Clear
8:15 AM 39.2 °F - 6.8 °F 26% 30.28 in 10.0 mi Calm Calm - N/A   Clear
8:35 AM 39.2 °F - 8.6 °F 28% 30.29 in 10.0 mi Calm Calm - N/A   Clear
8:55 AM 48.2 °F - 6.8 °F 19% 30.29 in 10.0 mi Calm Calm - N/A   Clear
9:15 AM 50.0 °F - 8.6 °F 19% 30.29 in 10.0 mi East 3.5 mph - N/A   Clear
9:35 AM 51.8 °F - 6.8 °F 16% 30.30 in 10.0 mi East 3.5 mph - N/A   Clear
9:55 AM 53.6 °F - 8.6 °F 16% 30.30 in 10.0 mi SSE 3.5 mph - N/A   Clear
10:15 AM 55.4 °F - 6.8 °F 14% 30.30 in 10.0 mi SE 6.9 mph - N/A   Clear
10:35 AM 55.4 °F - 6.8 °F 14% 30.31 in 10.0 mi ESE 4.6 mph - N/A   Clear
10:55 AM 57.2 °F - 5.0 °F 12% 30.31 in 10.0 mi ESE 5.8 mph - N/A   Clear
11:15 AM 59.0 °F - 5.0 °F 12% 30.31 in 10.0 mi East 4.6 mph - N/A   Clear
11:35 AM 60.8 °F - 5.0 °F 11% 30.31 in 10.0 mi SSE 5.8 mph - N/A   Clear
11:55 AM 60.8 °F - 10.4 °F 14% 30.30 in 10.0 mi South 3.5 mph - N/A   Clear
12:15 PM 62.6 °F - 8.6 °F 12% 30.29 in 10.0 mi East 4.6 mph - N/A   Clear
12:35 PM 62.6 °F - 6.8 °F 11% 30.28 in 10.0 mi ESE 3.5 mph - N/A   Clear
1:15 PM 64.4 °F - 5.0 °F 10% 30.25 in 10.0 mi South 5.8 mph - N/A   Clear
1:35 PM 64.4 °F - 6.8 °F 10% 30.25 in 10.0 mi South 4.6 mph - N/A   Clear
1:55 PM 64.4 °F - 12.2 °F 13% 30.25 in 10.0 mi SW 8.1 mph - N/A   Clear
2:15 PM 64.4 °F - 10.4 °F 12% 30.25 in 10.0 mi SSW 6.9 mph - N/A   Clear
2:35 PM 64.4 °F - 10.4 °F 12% 30.25 in 10.0 mi SSW 4.6 mph - N/A   Clear
2:55 PM 62.6 °F - 12.2 °F 14% 30.25 in 2.5 mi WSW 5.8 mph - N/A   Clear
3:15 PM 62.6 °F - 12.2 °F 14% 30.25 in 10.0 mi SW 5.8 mph - N/A   Clear
3:35 PM 62.6 °F - 12.2 °F 14% 30.25 in 10.0 mi West 3.5 mph - N/A   Clear
3:55 PM 62.6 °F - 8.6 °F 12% 30.25 in 10.0 mi SW 3.5 mph - N/A   Clear
4:15 PM 62.6 °F - 10.4 °F 13% 30.25 in 10.0 mi South 3.5 mph - N/A   Clear
4:35 PM 62.6 °F - 10.4 °F 13% 30.25 in 10.0 mi WSW 3.5 mph - N/A   Clear
4:55 PM 62.6 °F - 12.2 °F 14% 30.25 in 10.0 mi WSW 3.5 mph - N/A   Clear
5:15 PM 60.8 °F - 14.0 °F 16% 30.25 in 10.0 mi Calm Calm - N/A   Clear
5:35 PM 57.2 °F - 17.6 °F 21% 30.25 in 10.0 mi Calm Calm - N/A   Clear
5:55 PM 55.4 °F - 17.6 °F 23% 30.25 in 10.0 mi Calm Calm - N/A   Clear
6:15 PM 55.4 °F - 14.0 °F 20% 30.25 in 10.0 mi Calm Calm - N/A   Clear
6:35 PM 53.6 °F - 14.0 °F 21% 30.26 in 10.0 mi Calm Calm - N/A   Clear
6:55 PM 53.6 °F - 17.6 °F 24% 30.27 in 10.0 mi Calm Calm - N/A   Clear
7:15 PM 50.0 °F - 17.6 °F 28% 30.27 in 10.0 mi NE 4.6 mph - N/A   Clear
7:35 PM 51.8 °F - 17.6 °F 26% 30.27 in 10.0 mi Calm Calm - N/A   Clear
7:55 PM 51.8 °F - 17.6 °F 26% 30.27 in 10.0 mi NE 3.5 mph - N/A   Clear
8:15 PM 48.2 °F - 14.0 °F 25% 30.27 in 10.0 mi Calm Calm - N/A   Clear
8:35 PM 44.6 °F 43.1 °F 14.0 °F 29% 30.27 in 10.0 mi WNW 3.5 mph - N/A   Clear
8:55 PM 44.6 °F - 14.0 °F 29% 30.28 in 10.0 mi Calm Calm - N/A   Clear
9:15 PM 44.6 °F - 14.0 °F 29% 30.28 in 10.0 mi Calm Calm - N/A   Clear
9:35 PM 44.6 °F - 14.0 °F 29% 30.29 in 10.0 mi Calm Calm - N/A   Clear
9:55 PM 42.8 °F - 14.0 °F 31% 30.29 in 10.0 mi Calm Calm - N/A   Clear
10:15 PM 42.8 °F - 14.0 °F 31% 30.29 in 10.0 mi Calm Calm - N/A   Clear
10:35 PM 42.8 °F - 14.0 °F 31% 30.30 in 10.0 mi Calm Calm - N/A   Clear
10:55 PM 41.0 °F - 14.0 °F 33% 30.30 in 10.0 mi Calm Calm - N/A   Clear
11:15 PM 42.8 °F - 14.0 °F 31% 30.30 in 10.0 mi Calm Calm - N/A   Clear
11:35 PM 41.0 °F - 14.0 °F 33% 30.30 in 10.0 mi Calm Calm - N/A   Clear
11:55 PM 42.8 °F 40.1 °F 12.2 °F 29% 30.29 in 10.0 mi NNE 4.6 mph - N/A   Clear